STARLINK-2468, 48127

Orbit data source: Space-Track

STARLINK-2468, 48127 is a payload satellite owned by SpaceX/Seattle (US) in LEO that was launched on Wed, 07 Apr 2021 UTC via an FALCON 9 launch vehicle from the Air Force Eastern Test Range (AFETR). Payload-class satellites include a variety of spacecraft equipped with specific instruments for various scientific and technological missions. These include communications satellites like Starlink; space stations such as the ISS; scientific satellites like the Hubble; Earth observation satellites from companies like Planet Labs, Umbra, and HawkEye 360; GPS; miniature CubeSats for education and research; and military/defense satellites.

Loading next visibility...
Identifier
48127, 2021-027AM
Orbit
LEO
Country
Flag of USUS
Related business
Manufacturer
SpaceX/Seattle
Mission
Operational Commercial Communications
Bus & Motor
STARLINK, Unknown motor
Mass
260 kg wet, ~248 kg dry
Launch date (UTC)
2021-04-07 (5 years ago)
Launch vehicle
FALCON 9
Launch site
Air Force Eastern Test Range (AFETR)
Object type
Payload
Rocket body
Debris
Shape & HBR
Box + 1 Pan, 10.1 m
Radar Cross Section
13.562 m², Large (>1 m²)

Expand to show TLE details & history
Last TLE update: 2 days ago

TLE from 2 days ago
0 STARLINK-2468
1 48127U 21027AM  26171.37751390  .00001114  00000-0  47626-4 0  9992
2 48127  53.1600  47.6711 0001255  71.8402 288.2736 15.31715250288240
Epoch: 2026-06-20T09:03Z
TLE epoch observation values (Epoch: 2026-06-20T09:03:37.200Z)
Latitude
-0.00005°
Longitude
3.17306°
Altitude
471.325 km
Speed
7.632 km/s
True Right ascension
03h 10m 41s
True Declination
0° 00' 00"
Sunlit
Object was in daylight at epoch
Visualization orbit readout
Latitude
Unknown
Longitude
Unknown
Altitude
Unknown
Speed
Unknown
Apparent Right ascension
Unknown
Apparent Declination
Unknown
Sunlit
N/A
Visualization observer readout
Local Sidereal Time
21:34:01
Azimuth
Unknown
Elevation
Unknown
Doppler factor
Unknown
Orbital elements
Apogee altitude
471.811 km
Perigee altitude
470.092 km
Semi-major axis
6,849.088 km
Eccentricity
0.00013
Inclination
53.16°
RAAN
47.6711°
Arg. of periapsis
71.8402°
True anomaly
288.25994°
Mean anomaly
288.2736°
Eccentric anomaly
288.26677°
Mean motion
3.82908 °/min
Orbital period
94.02 mins
BSTAR
0.000047626
Loading maneuver chart data...
Computing Atmospheric mass density...
Loading historical data...
Loading historical data...
Loading historical data...
Loading historical data...
Loading historical data...
Loading historical data...
Loading historical data...

Documentation

Showing up to 5 results
|